Temperature
15 15 15 15 15 15 15 15 15 14 15 15 15 15 14 14 14 14 14 14 14 14 14 13 13 13 13 13 13 13 14 14 14 14 14 14 14 14
15 15 15 15 15 15 15 14 14 14 14 14 14 14 14 14 14 14 14 14 14 14 13 13 13 13 13 13 13 13 13 13 13 13 13 13 14 14
15 15 15 15 15 15 14 14 14 14 14 14 14 14 14 14 14 14 14 14 14 14 13 13 13 13 13 13 13 13 13 13 13 13 13 13 13 13
15 15 15 14 15 15 14 14 14 14 14 14 14 14 14 14 14 14 14 14 14 14 13 13 13 13 13 13 13 13 13 13 13 13 13 13 13 13
15 15 15 14 15 14 14 14 14 14 14 14 14 14 14 14 14 14 14 14 14 13 13 13 13 13 13 13 13 13 13 13 13 13 13 13 12 13
15 15 15 15 15 14 14 14 14 14 14 13 14 14 14 14 14 14 14 14 14 13 13 13 13 13 13 13 13 13 13 13 13 13 13 12 12 12
15 15 15 15 14 14 14 14 14 14 13 13 13 14 14 14 13 13 13 13 13 13 13 13 13 13 13 13 13 13 13 13 13 12 12 12 12 12
15 15 14 14 14 14 14 14 14 14 13 13 13 13 14 13 13 13 13 13 13 13 13 13 13 13 13 13 13 13 13 13 12 12 12 12 12 12
14 14 14 14 14 14 14 14 14 14 13 13 13 13 13 13 13 12 12 12 12 12 12 12 13 13 13 13 13 12 12 12 12 12 12 12 12 12
14 14 14 14 14 14 14 13 13 13 13 13 13 13 13 13 12 12 12 11 12 12 12 12 12 12 13 13 13 13 12 12 12 12 12 12 12 12
14 14 14 14 14 13 13 13 13 13 13 12 12 12 12 12 12 11 11 11 11 12 12 11 12 12 12 12 12 12 12 12 12 12 12 12 12 12
14 13 13 13 13 13 12 13 13 13 12 12 12 12 12 12 11 11 11 11 10 10 11 11 11 11 11 12 12 12 12 12 11 11 11 11 11 11
13 13 13 13 12 12 12 12 12 12 12 12 12 11 11 11 11 11 11 10 10 10 11 10 10 10 10 10 11 11 11 11 11 11 11 11 11 11
12 12 12 12 12 12 11 11 11 11 11 11 10 10 10 11 11 10 10 10 10 10 10 10 10 10 9 9 9 10 11 11 11 11 11 11 11 11
12 11 11 11 11 11 11 11 10 10 10 10 10 10 10 10 10 10 10 10 10 10 10 10 9 9 9 9 9 9 10 10 11 11 11 11 11 11
11 11 11 11 10 10 10 10 10 10 9 9 9 9 9 9 9 9 9 9 9 9 10 10 9 9 9 9 9 9 9 9 10 10 10 10 11 11
11 10 10 10 10 10 10 9 9 9 9 9 9 8 8 8 8 8 8 8 8 8 9 9 9 9 9 8 8 9 9 9 9 10 10 10 10 11
10 10 10 9 9 9 9 9 9 8 8 8 8 8 8 8 8 8 8 8 7 7 7 8 8 8 8 8 8 8 9 9 9 9 9 9 10 10
10 9 9 9 9 9 8 8 8 8 8 7 7 7 7 7 7 7 7 7 6 6 7 7 7 7 6 7 7 8 8 8 8 9 9 9 9 10
9 9 9 8 8 8 8 7 7 7 7 7 7 7 7 6 6 6 6 6 6 6 6 6 6 6 6 6 6 7 8 8 8 8 8 8 9 9
8 8 8 7 7 7 7 7 7 7 6 6 6 6 6 6 6 5 5 5 5 5 5 6 6 6 6 6 6 7 7 8 8 8 8 8 8 8
7 7 7 7 7 6 6 6 6 6 6 6 6 6 5 5 5 5 5 5 5 5 5 5 6 6 6 6 6 6 7 7 8 8 8 8 8 8
6 6 6 6 6 6 6 6 5 5 5 5 5 5 5 5 5 5 5 5 5 5 5 5 5 5 6 6 6 6 6 7 7 8 8 8 8 8
Wind_Speed
4 4 3 2 2 2 3 3 4 2 2 2 2 2 3 3 4 4 5 7 8 9 10 11 12 12 12 12 12 12 12 12 12 11 12 12 12 13
4 5 3 2 3 3 3 2 3 4 3 3 3 2 3 4 4 4 6 8 9 10 11 12 13 13 14 14 14 13 14 14 14 14 14 13 13 14
5 6 5 4 3 3 3 3 3 3 4 3 3 2 3 3 4 5 6 7 8 11 13 13 14 14 15 15 15 15 15 15 15 15 15 16 16 15
7 6 6 5 5 4 4 4 4 4 4 4 3 2 4 3 4 4 6 6 7 10 12 13 14 15 15 15 16 16 16 17 17 17 17 17 17 17
8 8 7 6 6 5 5 5 4 4 4 4 4 3 3 3 3 4 5 5 7 9 11 12 14 15 16 16 17 17 18 18 18 18 19 19 19 19
8 8 8 8 8 7 6 6 5 5 5 5 5 4 4 3 3 4 5 4 5 6 8 10 12 14 16 17 18 18 19 19 19 19 20 20 20 20
7 8 8 9 10 9 7 7 6 5 5 5 6 4 5 4 5 4 5 6 6 5 5 6 7 8 11 13 16 18 19 19 20 20 20 20 21 21
8 7 7 9 10 11 12 11 10 8 8 6 6 7 8 7 6 5 5 5 6 3 3 6 5 8 10 12 15 18 20 20 20 20 20 21 21 22
7 7 7 7 7 7 9 10 11 13 12 9 10 10 9 8 6 7 7 8 8 6 4 9 8 10 11 14 18 21 22 23 22 22 21 21 21 22
7 7 7 7 6 7 6 7 8 8 10 10 10 11 10 9 8 8 8 8 8 8 6 8 9 10 11 13 18 21 23 23 23 23 22 22 22 22
6 7 7 7 7 7 6 7 8 8 9 12 13 14 15 14 10 6 7 7 9 8 6 6 8 9 9 10 14 18 21 22 22 22 22 22 22 20
4 5 6 6 6 6 7 7 9 8 6 7 7 10 11 12 12 10 9 9 8 7 6 5 6 6 7 6 8 9 11 15 19 21 22 22 21 14
4 3 3 4 6 6 7 7 9 8 6 6 7 7 7 7 7 8 9 9 10 10 7 5 7 7 8 8 8 9 10 10 12 13 17 20 21 15
4 3 2 3 4 5 5 6 8 6 5 5 5 6 6 7 7 7 9 11 12 13 12 10 9 10 11 12 11 10 10 10 10 11 12 14 16 18
3 4 4 4 4 4 5 6 5 4 4 5 6 7 7 7 7 7 8 9 10 14 15 14 12 12 11 13 13 13 12 11 11 11 11 11 11 9
2 2 3 3 3 3 4 3 3 4 4 5 6 7 6 6 7 7 7 7 8 10 11 13 13 13 13 14 13 14 13 11 10 11 11 11 11 11
1 1 1 2 2 3 3 3 3 3 4 5 5 6 7 7 8 7 7 7 8 10 11 9 9 10 13 13 13 14 13 14 13 12 11 13 12 11
1 2 2 3 3 4 4 5 5 5 5 5 6 6 7 8 9 8 7 8 10 11 11 11 9 8 8 10 14 15 14 13 13 12 12 12 14 12
2 3 3 4 4 4 5 5 6 6 5 6 7 7 7 8 8 9 9 9 10 11 11 10 9 10 12 15 11 13 13 13 12 12 11 11 13 13
2 3 4 5 5 5 5 6 6 6 6 7 7 7 7 8 8 9 9 11 11 11 12 10 10 10 13 14 13 12 14 14 12 13 12 11 12 13
3 4 5 5 5 6 6 6 6 7 7 7 7 8 8 8 9 10 11 13 12 11 12 12 12 13 12 10 11 13 12 13 15 12 11 10 11 10
4 5 5 6 6 6 6 6 6 7 7 7 8 8 8 8 10 12 11 11 11 11 13 13 12 10 9 11 14 15 14 12 12 16 18 15 10 9
6 6 6 6 6 6 6 7 9 8 7 7 8 8 9 9 9 10 11 11 11 12 12 12 11 9 10 11 12 12 14 13 10 9 11 14 20 21
Wind_Direction
174 170 165 172 173 173 159 158 157 191 259 278 284 293 294 284 286 272 260 262 261 263 267 272 273 273 272 272 274 275 274 273 272 269 267 266 265 265
179 174 175 177 175 173 174 172 168 174 217 246 250 271 288 289 285 267 264 269 269 269 271 273 272 271 271 270 270 269 270 269 268 265 264 263 263 261
190 189 196 186 183 182 176 175 182 179 213 253 248 262 268 276 292 285 273 267 270 272 272 271 270 269 268 268 268 268 268 267 266 265 263 261 259 258
203 199 207 199 198 196 193 197 199 199 209 245 258 256 255 265 273 277 277 271 267 272 272 271 269 268 268 268 268 268 267 266 265 264 263 262 260 259
206 206 212 204 213 210 208 213 215 211 211 230 255 256 264 268 278 279 277 274 276 273 272 269 269 269 269 269 268 268 267 266 264 262 261 260 260 259
211 213 214 211 217 215 216 219 217 216 215 231 251 261 262 263 259 272 284 277 281 284 276 274 272 272 270 270 269 267 267 265 263 261 260 259 258 258
219 221 222 219 217 214 217 217 211 220 226 235 250 260 264 258 257 254 270 284 283 265 273 273 272 273 274 272 270 268 266 265 263 261 260 258 257 256
225 231 232 230 229 224 225 220 210 216 228 235 249 254 261 259 257 253 262 275 283 253 247 275 269 274 274 271 269 268 267 266 265 262 260 259 257 256
223 230 238 237 227 234 237 237 232 226 221 226 244 250 256 251 250 259 252 253 261 263 257 279 273 272 272 270 266 265 266 266 265 263 261 260 258 256
222 223 229 238 233 229 239 246 248 244 235 233 242 250 254 253 244 252 260 264 264 260 238 267 275 272 275 271 266 263 263 264 264 264 263 261 259 256
231 228 227 235 238 227 229 248 262 264 253 242 245 256 260 259 254 256 258 259 272 272 230 241 270 276 276 272 268 262 260 261 262 263 263 261 260 258
238 234 226 231 241 231 228 237 254 263 271 277 267 267 267 266 253 239 244 254 265 271 244 226 262 270 277 265 266 270 267 264 263 263 262 261 258 256
239 239 237 233 242 245 235 238 250 264 274 273 277 278 275 269 263 248 237 239 251 258 252 232 260 262 262 276 277 273 269 271 272 268 262 257 254 243
237 241 241 241 253 257 250 252 262 269 267 270 273 276 279 279 277 272 260 251 248 256 263 253 258 264 269 275 278 276 271 267 265 267 267 263 256 244
240 243 255 264 265 263 261 269 272 263 258 263 269 273 272 275 280 282 277 267 262 261 262 256 255 262 261 266 272 274 276 274 263 261 261 258 258 254
244 264 273 267 253 255 271 274 260 252 252 261 271 278 284 282 279 279 280 284 283 282 268 259 255 256 262 264 265 269 268 268 266 261 261 263 260 252
189 248 280 288 292 287 282 276 271 263 257 259 268 280 284 284 284 282 276 280 278 285 290 286 270 259 257 261 265 264 265 265 264 264 262 265 263 254
172 238 260 266 270 274 279 285 279 272 268 267 269 272 278 281 283 283 277 277 279 281 283 286 288 287 279 264 239 256 262 263 265 261 258 261 266 261
233 262 265 268 271 274 276 278 280 280 277 272 272 275 277 279 281 283 284 281 280 280 281 282 279 275 279 283 269 229 250 265 266 265 259 254 262 265
257 269 277 280 279 278 278 280 282 285 283 281 279 279 280 282 284 285 284 282 283 284 284 280 273 268 268 276 282 275 245 254 263 265 266 263 262 265
284 279 277 278 278 278 279 279 278 280 282 282 280 279 280 280 281 283 283 280 279 281 282 281 279 271 273 273 271 270 268 244 242 255 264 267 268 266
292 287 284 281 278 279 281 279 278 278 279 278 279 279 279 278 280 283 284 283 282 281 283 282 283 278 270 266 269 275 280 278 257 244 245 244 250 255
295 292 291 290 287 285 282 281 281 279 277 278 279 281 282 282 283 283 283 283 282 284 285 286 284 276 270 265 269 273 277 281 281 278 268 246 239 247
Height
1556 1557 1558 1559 1560 1561 1562 1563 1564 1563 1563 1564 1564 1564 1565 1565 1565 1565 1564 1564 1564 1564 1563 1562 1561 1561 1560 1559 1559 1559 1558 1558 1558 1558 1558 1558 1558 1558
1553 1554 1555 1556 1557 1558 1559 1560 1561 1561 1561 1561 1561 1562 1562 1562 1561 1561 1561 1561 1560 1560 1559 1559 1558 1557 1556 1556 1555 1555 1554 1554 1553 1553 1553 1553 1553 1552
1551 1552 1553 1554 1555 1556 1556 1557 1558 1558 1558 1558 1558 1558 1558 1558 1558 1558 1557 1557 1556 1556 1555 1554 1554 1553 1552 1551 1551 1550 1549 1549 1548 1548 1548 1547 1547 1547
1548 1549 1551 1551 1552 1553 1554 1554 1555 1555 1555 1555 1555 1555 1555 1554 1554 1553 1553 1552 1552 1551 1550 1550 1549 1548 1547 1546 1546 1545 1544 1544 1543 1543 1542 1542 1541 1541
1545 1547 1548 1549 1549 1550 1550 1551 1551 1551 1551 1551 1550 1551 1550 1550 1549 1549 1548 1547 1547 1546 1545 1544 1544 1543 1542 1541 1539 1539 1538 1537 1537 1536 1536 1536 1535 1535
1542 1543 1544 1545 1546 1546 1547 1547 1547 1547 1547 1546 1546 1546 1545 1545 1544 1544 1543 1542 1541 1541 1540 1539 1538 1537 1536 1534 1533 1532 1531 1530 1530 1529 1529 1529 1529 1528
1537 1539 1540 1540 1541 1542 1542 1542 1542 1542 1542 1542 1541 1540 1540 1539 1539 1538 1537 1536 1535 1534 1533 1532 1531 1530 1529 1527 1526 1525 1524 1523 1522 1522 1521 1521 1521 1521
1533 1534 1535 1535 1536 1537 1537 1537 1538 1537 1537 1536 1535 1535 1534 1534 1533 1532 1531 1529 1527 1528 1526 1524 1524 1522 1521 1520 1519 1518 1517 1516 1515 1514 1513 1513 1513 1513
1527 1528 1529 1530 1531 1531 1531 1531 1531 1531 1531 1531 1529 1528 1528 1528 1527 1525 1524 1522 1521 1520 1519 1515 1516 1514 1514 1512 1511 1510 1509 1508 1507 1506 1505 1505 1504 1504
1521 1522 1523 1524 1525 1525 1525 1525 1525 1524 1524 1524 1523 1522 1522 1521 1520 1519 1517 1515 1513 1513 1512 1508 1507 1506 1505 1504 1503 1502 1500 1499 1498 1497 1496 1496 1495 1495
1515 1516 1517 1517 1518 1518 1518 1518 1518 1518 1518 1517 1516 1516 1515 1514 1513 1511 1509 1507 1504 1504 1504 1501 1498 1497 1495 1494 1494 1493 1492 1491 1489 1488 1487 1487 1486 1486
1510 1511 1510 1510 1511 1512 1512 1511 1511 1510 1510 1509 1509 1508 1507 1506 1505 1504 1502 1500 1496 1494 1495 1493 1490 1489 1485 1484 1484 1484 1483 1481 1481 1479 1478 1478 1477 1476
1504 1504 1505 1505 1505 1505 1505 1505 1504 1503 1502 1501 1500 1499 1499 1498 1497 1495 1494 1492 1490 1487 1487 1486 1482 1481 1478 1474 1474 1474 1473 1472 1471 1470 1469 1469 1468 1467
1500 1500 1500 1500 1500 1500 1499 1498 1498 1497 1496 1494 1493 1492 1491 1490 1489 1488 1486 1484 1482 1480 1479 1478 1474 1473 1470 1467 1464 1464 1464 1463 1462 1460 1460 1459 1458 1458
1495 1495 1495 1495 1495 1494 1493 1493 1492 1491 1490 1488 1487 1486 1484 1483 1481 1479 1478 1476 1474 1472 1471 1469 1467 1464 1462 1459 1456 1455 1454 1452 1452 1451 1450 1449 1448 1448
1491 1490 1490 1490 1489 1488 1488 1487 1486 1485 1484 1482 1480 1479 1477 1475 1474 1472 1470 1467 1464 1462 1462 1461 1459 1456 1453 1450 1448 1445 1444 1443 1442 1441 1440 1439 1438 1437
1486 1486 1485 1485 1484 1483 1482 1481 1480 1479 1477 1476 1474 1472 1470 1468 1466 1464 1462 1459 1457 1453 1452 1451 1450 1447 1444 1441 1438 1436 1434 1433 1432 1432 1430 1428 1427 1427
1482 1481 1480 1479 1478 1477 1476 1475 1474 1473 1471 1469 1467 1465 1463 1461 1459 1457 1455 1452 1449 1446 1443 1442 1440 1437 1434 1431 1430 1427 1425 1424 1423 1422 1420 1418 1416 1416
1477 1476 1475 1474 1473 1472 1471 1470 1468 1467 1465 1463 1461 1459 1456 1454 1451 1449 1447 1444 1441 1438 1435 1434 1432 1429 1425 1421 1419 1419 1417 1414 1413 1412 1410 1408 1406 1406
1473 1472 1471 1469 1468 1467 1465 1464 1462 1461 1459 1457 1455 1453 1450 1448 1445 1442 1439 1436 1433 1430 1427 1425 1423 1421 1418 1414 1410 1408 1408 1406 1404 1402 1401 1399 1397 1397
1469 1467 1466 1465 1463 1461 1460 1458 1456 1454 1452 1450 1448 1446 1444 1441 1438 1435 1432 1429 1426 1422 1419 1416 1414 1413 1409 1406 1402 1397 1397 1397 1396 1394 1392 1391 1389 1387
1465 1463 1461 1460 1458 1456 1454 1452 1450 1448 1446 1444 1441 1439 1436 1434 1430 1427 1424 1421 1418 1414 1411 1407 1405 1403 1400 1397 1393 1390 1389 1388 1387 1386 1384 1383 1381 1379
1460 1458 1456 1454 1452 1450 1448 1446 1444 1441 1439 1437 1434 1432 1429 1426 1423 1420 1417 1414 1410 1407 1403 1400 1397 1394 1392 1390 1387 1384 1382 1380 1379 1377 1376 1375 1374 1372